Weather History for KMTH - March, 2013

Change the Weather History Date:

Tuesday, March 5, 2013

  Actual Average Record
Temperature  
Mean Temperature 65 °F 73 °F  
Max Temperature 77 °F 78 °F - ()
Min Temperature 53 °F 67 °F - ()
Degree Days  
Heating Degree Days 0 0  
Month to date heating degree days 15 0  
Since 1 July heating degree days 28 75  
Cooling Degree Days 0 8  
Month to date cooling degree days 2 40  
Year to date cooling degree days 597 422  
Growing Degree Days 15 (Base 50)    
Moisture  
Dew Point 53 °F    
Average Humidity 62    
Maximum Humidity 78    
Minimum Humidity 46    
Precipitation  
Precipitation 0.00 in 0.08 in - ()
Month to date precipitation 0.15 0.37  
Year to date precipitation 2.53 4.19  
Snow  
Snow 0.00 in - - ()
Month to date snowfall 0.0  
Since 1 July snowfall 0.0  
Snow Depth 0.00 in    
Sea Level Pressure  
Sea Level Pressure 30.14 in    
Wind  
Wind Speed 5 mph (ENE)    
Max Wind Speed 13 mph    
Max Gust Speed 15 mph    
Visibility 10 miles    
Events      
T = Trace of Precipitation, MM = Missing Value Source: NWS Daily Summary

Daily Weather History Graph

Daily Weather History Graph

Search for Another Location

Airport or City:

Trip Planner

Search our weather history database for the weather conditions in past years. The results will help you decide how hot, cold, wet, or windy it might be!

Date:

Astronomy

Mar. 05, 2013 Rise Set
Actual Time 6:42 AM EST 6:28 PM EST
Civil Twilight 6:20 AM EST 6:51 PM EST
Nautical Twilight 5:53 AM EST 7:17 PM EST
Astronomical Twilight 5:27 AM EST 7:44 PM EST
Moon 1:26 AM EST (3/5) 12:33 PM EST (3/5)
Length of Visible Light 12h 31m
Length of Day
11h 45m
Last Quarter, 41% of the Moon is Illuminated
Mar 5
Last Quarter
Mar 11
New
Mar 19
First Quarter
Mar 27
Full
Apr 3
Last Quarter

Hourly Weather History & Observations

Time (EST) Temp. Dew Point Humidity Pressure Visibility Wind Dir Wind Speed Gust Speed Precip Events Conditions
12:53 AM 55.0 °F 46.9 °F 74% 30.16 in 10.0 mi North 3.5 mph - N/A   Clear
2:53 AM 60.1 °F 46.9 °F 62% 30.14 in 10.0 mi NNE 5.8 mph - N/A   Clear
3:53 AM 60.1 °F 48.0 °F 64% 30.13 in 10.0 mi NNE 4.6 mph - N/A   Clear
4:53 AM 61.0 °F 48.9 °F 64% 30.13 in 10.0 mi NE 6.9 mph - N/A   Clear
5:53 AM 61.0 °F 50.0 °F 67% 30.15 in 10.0 mi NE 8.1 mph - N/A   Clear
6:53 AM 62.1 °F 52.0 °F 70% 30.15 in 10.0 mi ENE 6.9 mph - N/A   Clear
8:53 AM 66.0 °F 54.0 °F 65% 30.17 in 10.0 mi NE 11.5 mph - N/A   Clear
9:53 AM 69.1 °F 55.0 °F 61% 30.18 in 10.0 mi NE 9.2 mph - N/A   Clear
10:53 AM 75.0 °F 54.0 °F 48% 30.17 in 10.0 mi ESE 5.8 mph - N/A   Clear
11:53 AM 75.0 °F 54.0 °F 48% 30.16 in 10.0 mi ESE 9.2 mph - N/A   Clear
12:53 PM 75.9 °F 55.0 °F 48% 30.14 in 10.0 mi Variable 5.8 mph - N/A   Clear
1:53 PM 75.9 °F 54.0 °F 46% 30.12 in 10.0 mi Variable 6.9 mph - N/A   Clear
2:53 PM 75.9 °F 55.0 °F 48% 30.11 in 10.0 mi SE 6.9 mph - N/A   Partly Cloudy
3:53 PM 75.0 °F 54.0 °F 48% 30.10 in 10.0 mi ESE 5.8 mph - N/A   Partly Cloudy
4:53 PM 73.0 °F 53.1 °F 49% 30.10 in 10.0 mi SE 3.5 mph - N/A   Clear
5:53 PM 71.1 °F 52.0 °F 51% 30.12 in 10.0 mi Calm Calm - N/A   Clear
6:53 PM 69.1 °F 52.0 °F 54% 30.12 in 10.0 mi Calm Calm - N/A   Clear
7:53 PM 66.0 °F 53.1 °F 63% 30.12 in 10.0 mi Calm Calm - N/A   Partly Cloudy
8:53 PM 64.0 °F 53.1 °F 67% 30.13 in 10.0 mi Calm Calm - N/A   Clear
9:53 PM 64.0 °F 55.9 °F 75% 30.15 in 10.0 mi Calm Calm - N/A   Clear
10:53 PM 62.1 °F 55.0 °F 78% 30.14 in 10.0 mi Calm Calm - N/A   Clear
11:53 PM 61.0 °F 55.0 °F 81% 30.11 in 10.0 mi Calm Calm - N/A   Clear